Regional Weather Roundup
Issued by NWS Spokane, WA

Home | Current Version | Previous Version | Text Only | Print | Product List | Glossary On
Versions: 1 2 3 4 5 6 7 8 9 10 11 12 13 14 15 16 17 18 19 20 21 22 23 24 25 26 27 28 29 30 31 32 33 34 35 36 37 38 39 40 41 42 43 44 45 46 47 48 49 50
000
NZUS01 KOTX 291710
RWROTX
EASTERN WASHINGTON/NORTHERN IDAHO ROUNDUP
NATIONAL WEATHER SERVICE, SPOKANE WA
1000 AM PDT SUN MAY 29 2016

Note: "fair" indicated few or no clouds below 12,000 feet with no
significant weather and/or obstructions to visibility.

...NORTHEAST WASHINGTON AND NORTHERN IDAHO PANHANDLE...

CITY           SKY/WX    TMP DP  RH WIND       PRES   REMARKS
SPOKANE INTL   PTSUNNY   61  41  47 SW13      29.99S
SPOKANE DOWNTO MOSUNNY   66  44  45 S15       29.99F
COEUR D ALENE  MOSUNNY   63  45  51 SE10      29.97F
DEER PARK      MOSUNNY   62  43  49 S6        29.99F
SANDPOINT      MOSUNNY   55  45  67 CALM      30.00F
BONNERS FERRY  FAIR      57  43  58 CALM      30.00F

...SOUTHEAST WASHINGTON AND SOUTHERN IDAHO PANHANDLE...

CITY           SKY/WX    TMP DP  RH WIND       PRES   REMARKS
WALLA WALLA    MOSUNNY   65  45  48 SW12      30.03S
PULLMAN/MOSCOW PTSUNNY   61  45  55 W8        30.05S
LEWISTON       PTSUNNY   60  45  57 CALM      30.02F
LOWELL           N/A     59  44  57 N3        30.02F

...COLUMBIA BASIN...

CITY           SKY/WX    TMP DP  RH WIND       PRES   REMARKS
EPHRATA        SUNNY     67  38  34 SW9       29.98S
MOSES LAKE     SUNNY     66  41  40 SW8       29.99S
TRI CITIES     SUNNY     69  44  40 W5        30.01F
HERMISTON      SUNNY     70  44  39 W20       30.02S
PENDLETON      MOSUNNY   67  42  40 SW15G21   30.03F

...EAST SLOPES CASCADES...

CITY           SKY/WX    TMP DP  RH WIND       PRES   REMARKS
THE DALLES     SUNNY     67  44  43 NW20G30   30.05S
YAKIMA         SUNNY     68  41  37 CALM      30.00F
ELLENSBURG     SUNNY     63  41  44 NW18      30.01S
STAMPEDE PASS  PTSUNNY   45  37  73 VRB7G21   30.08R
WENATCHEE      MOSUNNY   65  36  34 NW8       29.99S
OMAK           CLOUDY    62  42  47 CALM      29.97S

...SOUTHERN BRITISH COLUMBIA...

CITY           SKY/WX    TMP DP  RH WIND       PRES   REMARKS
PENTICTON      PTSUNNY   57  48  72 N14       29.99S
CASTLEGAR      PTSUNNY   57  48  72 VRB2      29.96F
CRANBROOK      LGT RAIN  52  41  66 E9G18     29.98F

...WESTERN MONTANA...

CITY           SKY/WX    TMP DP  RH WIND       PRES   REMARKS
MISSOULA       LGT RAIN  54  41  61 CALM      30.06F

...NEIGHBORING CITIES...

CITY           SKY/WX    TMP DP  RH WIND       PRES   REMARKS
SEATTLE        CLOUDY    57  50  77 SW7       30.13R
CALGARY        PTSUNNY   61  30  31 SW6       29.86F



USA.gov is the U.S. government's official web portal to all federal, state and local government web resources and services.